Location: Beuvrequen
(50.8014°N, 1.6652°E)
Time: 20:52:06
(UTC+00:00)

Cosmos 407 Rocket - Pass Details

Date: 16 October 2021
Orbit: 743 x 787 km, 74.0° (Epoch: 04 December)

Event Time Altitude Azimuth Distance (km) Brightness Sun altitude
Rises 19:49:53 0° 338° (NNW) 3,255 7.3 -27.5°
Reaches altitude 10° 19:52:20 10° 344° (NNW) 2,331 6.4 -27.8°
Enters shadow 19:55:53 37° 12° (NNE) 1,203 4.5 -28.4°
